Location: Unspecified
(49.9820°N, 20.4363°E)
Time: 00:56:29
(UTC+02:00)

ISS - Pass Details

Date: 18 July 2018
Orbit: 402 x 408 km, 51.6° (Epoch: 16 July)

Event Time Altitude Azimuth Distance (km) Brightness Sun altitude
Exits shadow 00:50:13 31° 263° (W) 733 -2.7 -18.9°
Maximum altitude 00:51:38 79° 347° (NNW) 418 -3.8 -18.9°
Drops below altitude 10° 00:54:56 10° 74° (ENE) 1,471 -0.8 -18.9°
Sets 00:57:01 0° 76° (ENE) 2,333 0.3 -18.9°
